{"data":{"norad_id":69486,"epoch":"2026-09-19T23:00:15.549984Z","epoch_age_seconds":72199,"freshness":"FRESH","line1":"1 69486U 26131J   26262.95851331  .00011470  00000+0  35700-3 0  9999","line2":"2 69486  97.2839 283.8144 0001859 110.7631 249.3811 15.33450361 16810","mean_motion":15.33450361,"eccentricity":0.0001859,"inclination_deg":97.2839,"raan_deg":283.8144,"arg_perigee_deg":110.7631,"mean_anomaly_deg":249.3811,"bstar":0.000357,"rev_number":1681,"period_min":93.90587635722,"perigee_km":464.25498678115,"apogee_km":466.79946113962,"semimajor_km":6843.6642239604,"source":"CELESTRAK","updated_at":"2026-09-20T09:00:44.206883Z"}}